Location: Martin Dies, Jr. State Park
(30.8429°N, 94.1720°W)
Time: 02:48:33
(UTC-05:00)

Envisat - Visible Passes

Search period start: 23 April 2021 00:00
Search period end: 03 May 2021 00:00
Orbit: 764 x 766 km, 98.1° (Epoch: 22 April)

Date Brightness Start Highest point End Pass type
(mag) Time Alt. Az. Time Alt. Az. Time Alt. Az.
24 Apr 4.6 06:12:21 10° NNE 06:17:05 39° E 06:21:48 10° SSE visible
25 Apr 5.8 05:37:03 10° ENE 05:40:05 16° E 05:43:05 10° SE visible
27 Apr 5.1 06:01:11 10° NE 06:05:36 30° E 06:10:00 10° SSE visible
28 Apr 6.1 05:26:48 10° ENE 05:28:32 12° E 05:30:16 10° ESE visible
30 Apr 5.5 05:50:08 10° NE 05:54:06 23° E 05:58:03 10° SSE visible
